Weather History for MMTO - October, 2012

Change the Weather History Date:

Sunday, October 28, 2012

  Actual Average Record
Temperature  
Mean Temperature 54 °F -  
Max Temperature 68 °F 69 °F 73 °F (1996)
Min Temperature 39 °F 39 °F 33 °F (1999)
Degree Days  
Heating Degree Days 12    
Growing Degree Days 4 (Base 50)    
Moisture  
Dew Point 41 °F    
Average Humidity 65    
Maximum Humidity 87    
Minimum Humidity 30    
Precipitation  
Precipitation 0.00 in - - ()
Sea Level Pressure  
Sea Level Pressure 30.19 in    
Wind  
Wind Speed 3 mph ()    
Max Wind Speed 13 mph    
Max Gust Speed -    
Visibility 5.9 miles    
Events      
Averages and records for this station are not official NWS values.
T = Trace of Precipitation, MM = Missing Value Source: Averaged Metar Reports

Daily Weather History Graph

Daily Weather History Graph

Search for Another Location

Airport or City:

Trip Planner

Search our weather history database for the weather conditions in past years. The results will help you decide how hot, cold, wet, or windy it might be!

Date:

Astronomy

Oct. 28, 2012 Rise Set
Actual Time 6:37 AM CST 6:06 PM CST
Civil Twilight 6:14 AM CST 6:28 PM CST
Nautical Twilight 5:49 AM CST 6:54 PM CST
Astronomical Twilight 5:23 AM CST 7:20 PM CST
Moon 5:24 PM CST (10/28) 5:35 AM CST (10/28)
Length of Visible Light 12h 13m
Length of Day
11h 28m
Waxing Gibbous, 99% of the Moon is Illuminated
Oct 28
Waxing Gibbous
Oct 29
Full
Nov 6
Last Quarter
Nov 13
New
Nov 20
First Quarter

Hourly Weather History & Observations

Time (CST) Temp. Windchill Dew Point Humidity Pressure Visibility Wind Dir Wind Speed Gust Speed Precip Events Conditions
12:45 AM 48.2 °F - 41.0 °F 76% 29.83 in 6.0 mi Calm Calm - N/A   Scattered Clouds
1:45 AM 48.2 °F - 41.0 °F 76% 30.38 in 5.0 mi Calm Calm - N/A   Scattered Clouds
1:45 AM - - 39.2 °F N/A% 30.36 in 5.0 mi Calm Calm - N/A   Scattered Clouds
2:45 AM 42.8 °F 40.1 °F 39.2 °F 87% 29.80 in 5.0 mi NE 4.6 mph - N/A   Scattered Clouds
3:45 AM 42.8 °F 40.1 °F 37.4 °F 81% 30.34 in 5.0 mi East 4.6 mph - N/A   Scattered Clouds
4:45 AM 41.0 °F - 37.4 °F 87% 30.34 in 3.0 mi Calm Calm - N/A   Mostly Cloudy
5:45 AM 39.2 °F 37.0 °F 35.6 °F 87% 29.93 in 2.0 mi NE 3.5 mph - N/A   Scattered Clouds
6:45 AM 39.2 °F 37.0 °F 35.6 °F 87% 30.37 in 3.0 mi NNE 3.5 mph - N/A   Scattered Clouds
7:45 AM 44.6 °F - 41.0 °F 87% 30.40 in 6.0 mi Calm Calm - N/A   Mostly Cloudy
8:45 AM 51.8 °F - 42.8 °F 71% 29.92 in 6.0 mi Calm Calm - N/A   Mostly Cloudy
9:45 AM 59.0 °F - 41.0 °F 51% 30.41 in 6.0 mi Calm Calm - N/A   Mostly Cloudy
10:45 AM 62.6 °F - 42.8 °F 48% 30.40 in 6.0 mi NW 5.8 mph - N/A   Mostly Cloudy
11:45 AM 64.4 °F - 41.0 °F 42% 29.84 in 7.0 mi WNW 6.9 mph - N/A   Mostly Cloudy
12:45 PM 68.0 °F - 37.4 °F 33% 30.34 in 7.0 mi WNW 5.8 mph - N/A   Mostly Cloudy
1:45 PM 68.0 °F - 35.6 °F 30% 30.31 in 7.0 mi East 8.1 mph - N/A   Mostly Cloudy
2:45 PM 68.0 °F - 35.6 °F 30% 29.78 in 7.0 mi NE 6.9 mph - N/A   Mostly Cloudy
3:45 PM 66.2 °F - 35.6 °F 32% 30.29 in 7.0 mi NE 12.7 mph - N/A   Mostly Cloudy
4:45 PM 66.2 °F - 35.6 °F 32% 30.30 in 7.0 mi East 8.1 mph - N/A   Mostly Cloudy
5:45 PM 60.8 °F - 48.2 °F 63% 29.89 in 7.0 mi South 9.2 mph - N/A   Mostly Cloudy
6:45 PM 57.2 °F - 48.2 °F 72% 30.34 in 7.0 mi SE 8.1 mph - N/A   Mostly Cloudy
7:45 PM 57.2 °F - 48.2 °F 72% 30.37 in 7.0 mi SSE 9.2 mph - N/A   Mostly Cloudy
8:45 PM 53.6 °F - 48.2 °F 82% 29.91 in 7.0 mi ESE 4.6 mph - N/A   Mostly Cloudy
9:45 PM 51.8 °F - 44.6 °F 76% 30.41 in 7.0 mi East 3.5 mph - N/A   Scattered Clouds
10:45 PM 50.0 °F - 44.6 °F 82% 30.42 in 7.0 mi SSE 4.6 mph - N/A   Scattered Clouds